Point Lay, AK

9:00 AM AKST on February 25, 2018 (GMT -0900)
Point Lay

Weather History for PPIZ - March, 2014

Change the Weather History Date:

Saturday, March 22, 2014

  Actual Average Record
Temperature  
Mean Temperature 4 °F -  
Max Temperature 10 °F 0 °F 42 °F (2004)
Min Temperature -1 °F -11 °F -34 °F (2009)
Degree Days  
Heating Degree Days 62    
Moisture  
Dew Point -4 °F    
Average Humidity 75    
Maximum Humidity 84    
Minimum Humidity 67    
Precipitation  
Precipitation 0.00 in - - ()
Sea Level Pressure  
Sea Level Pressure 30.65 in    
Wind  
Wind Speed 7 mph (SSE)    
Max Wind Speed 10 mph    
Max Gust Speed -    
Visibility 10 miles    
Events      
Averages and records for this station are not official NWS values.
T = Trace of Precipitation, MM = Missing Value Source: NWS Daily Summary

Daily Weather History Graph

Daily Weather History Graph

Search for Another Location

Airport or City:

Trip Planner

Search our weather history database for the weather conditions in past years. The results will help you decide how hot, cold, wet, or windy it might be!

Date:

Astronomy

Mar. 22, 2014 Rise Set
Actual Time 8:40 AM AKDT 9:19 PM AKDT
Civil Twilight 7:39 AM AKDT 10:20 PM AKDT
Nautical Twilight 6:21 AM AKDT 11:40 PM AKDT
Astronomical Twilight 4:27 AM AKDT 1:40 AM AKDT
Moon 6:08 AM AKDT (3/22) 9:13 AM AKDT (3/22)
Length of Visible Light 14h 40m
Length of Day
12h 38m
Waning Gibbous, 64% of the Moon is Illuminated
Mar 22
Waning Gibbous
Mar 23
Last Quarter
Mar 30
New
Apr 7
First Quarter
Apr 14
Full

Hourly Weather History & Observations

Time (AKDT) Temp. Windchill Dew Point Humidity Pressure Visibility Wind Dir Wind Speed Gust Speed Precip Events Conditions
12:56 AM 3.0 °F -12.5 °F -1.8 °F 80% 30.68 in 10.0 mi South 10.4 mph - N/A   Clear
1:56 AM 2.1 °F - -4.0 °F 76% 30.68 in 10.0 mi North - - N/A   Clear
2:56 AM 3.0 °F -9.3 °F -2.9 °F 76% 30.68 in 10.0 mi SSE 6.9 mph - N/A   Clear
3:56 AM 3.0 °F -10.5 °F -2.9 °F 76% 30.68 in 10.0 mi SSE 8.1 mph - N/A   Clear
4:56 AM -0.9 °F -12.7 °F -6.0 °F 79% 30.67 in 10.0 mi SE 5.8 mph - N/A   Clear
5:56 AM -0.9 °F -14.1 °F -6.9 °F 76% 30.66 in 10.0 mi SE 6.9 mph - N/A   Clear
6:56 AM -0.9 °F -14.1 °F -6.9 °F 76% 30.67 in 10.0 mi ESE 6.9 mph - N/A   Clear
7:56 AM -0.9 °F -14.1 °F -6.9 °F 76% 30.67 in 10.0 mi ESE 6.9 mph - N/A   Clear
8:56 AM -1.8 °F -13.7 °F -8.0 °F 75% 30.67 in 10.0 mi ESE 5.8 mph - N/A   Clear
9:56 AM -1.8 °F -12.0 °F -8.0 °F 75% 30.67 in 10.0 mi SE 4.6 mph - N/A   Clear
10:56 AM -1.8 °F -17.5 °F -8.9 °F 72% 30.67 in 10.0 mi SE 9.2 mph - N/A   Clear
11:56 AM 0.1 °F -11.4 °F -6.9 °F 72% 30.66 in 10.0 mi SE 5.8 mph - N/A   Clear
12:56 PM 1.0 °F -10.3 °F -6.0 °F 72% 30.65 in 10.0 mi SE 5.8 mph - N/A   Clear
1:56 PM 5.0 °F -8.1 °F -2.9 °F 70% 30.65 in 10.0 mi SE 8.1 mph - N/A   Clear
2:56 PM 8.1 °F - 0.1 °F 70% 30.66 in 10.0 mi Calm Calm - N/A   Clear
3:56 PM 8.1 °F -0.5 °F -0.9 °F 67% 30.65 in 10.0 mi ESE 4.6 mph - N/A   Clear
4:56 PM 7.2 °F -1.5 °F 1.0 °F 76% 30.65 in 10.0 mi West 4.6 mph - N/A   Clear
5:56 PM 7.2 °F - 0.1 °F 73% 30.64 in 10.0 mi Calm Calm - N/A   Clear
6:56 PM 7.2 °F - 0.1 °F 73% 30.64 in 10.0 mi Calm Calm - N/A   Clear
7:56 PM 6.1 °F -2.8 °F 0.1 °F 77% 30.63 in 10.0 mi SE 4.6 mph - N/A   Clear
8:56 PM 3.0 °F -10.5 °F -0.9 °F 84% 30.62 in 10.0 mi South 8.1 mph - N/A   Clear
9:56 PM 4.1 °F -10.2 °F -0.9 °F 80% 30.62 in 10.0 mi South 9.2 mph - N/A   Clear
10:56 PM 3.0 °F -9.3 °F -2.9 °F 76% 30.62 in 10.0 mi South 6.9 mph - N/A   Clear
11:56 PM 4.1 °F -9.2 °F -2.9 °F 73% 30.62 in 10.0 mi South 8.1 mph - N/A   Clear